#timestamp,LO_Frequency,Hit,StdDev 
1578535215.9,286047000.0,N
1578535235.7,286046999.5,N
1578535255.5,286046997.4,N
1578535275.4,286046998.9,N
1578535295.2,286046999.3,N
1578535315.1,286046998.6,N
1578535316.0,286046998.6,N
1578535335.8,286046998.1,N
1578535355.6,286047000.7,N
1578535375.5,286047000.1,N
1578535395.3,286047002.1,N
1578535415.2,286047002.4,N
1578535435.9,286047001.7,N
1578535455.7,286047001.4,N
1578535475.6,286047001.8,N
1578535495.4,286047000.4,N
1578535515.3,286047000.2,N
1578535535.1,286047000.5,N
1578535536.0,286047000.5,N
1578535555.8,286047000.5,N
1578535575.7,286047000.2,N
1578535595.5,286047002.7,N
1578535615.4,286046999.9,N
1578535635.2,286047000.5,N
1578535655.0,286047002.6,N
1578535655.9,286047002.6,N
1578535675.8,286047000.9,N
1578535695.6,286047002.5,N
1578535715.4,286047002.6,N
1578535735.3,286047002.6,N
1578535755.1,286047002.1,N
1578535775.9,286046999.9,N
1578535795.7,286047000.9,N
1578535815.5,286046998.4,N
1578535835.4,286047000.4,N
1578535855.2,286047000.6,N
1578535875.0,286046998.8,N
1578535876.0,286046998.8,N
1578535895.8,286046996.6,N
1578535915.6,286047001.0,N
1578535935.5,286047002.0,N
1578535955.3,286047001.1,N
1578535975.1,286047002.3,N
1578535995.9,286047000.5,N
1578536015.7,286046999.9,N
1578536035.5,286046999.7,N
1578536055.4,286046998.8,N
1578536075.2,286046999.3,N
1578536095.1,286046995.3,Y
1578536096.0,286046995.3,P
1578536115.8,286046997.6,N
1578536135.6,286046997.4,N
1578536155.5,286046995.5,N
1578536175.3,286046998.0,N
1578536195.2,286046995.1,N
1578536215.9,286046997.6,N
1578536235.7,286046999.4,N
1578536255.6,286046998.3,N
1578536275.4,286047000.1,N
1578536295.3,286046999.8,N
1578536315.1,286047000.9,N
1578536316.0,286047000.9,N
1578536335.8,286047000.2,N
1578536355.7,286046998.6,N
1578536375.5,286047001.0,N
1578536395.3,286046998.9,N
1578536415.2,286046998.4,N
1578536435.0,286047001.6,N
1578536435.9,286047001.6,N
1578536455.8,286047003.8,N
1578536475.6,286047002.9,N
1578536495.4,286047006.0,N
1578536515.3,286047002.5,N
1578536535.1,286047000.5,N
1578536555.9,286047000.2,N
1578536575.7,286047000.9,N
1578536595.5,286046999.7,N
1578536615.4,286047002.4,N
1578536635.2,286047002.3,N
1578536655.0,286047000.4,N
1578536655.9,286047000.4,N
1578536675.8,286047002.5,N
1578536695.6,286047003.8,N
1578536715.5,286047001.9,N
1578536735.3,286046998.4,N
1578536755.1,286046999.4,N
1578536775.9,286046998.9,N
1578536795.7,286046999.7,N
1578536815.5,286047000.1,N
1578536835.4,286047001.8,N
1578536855.2,286047002.8,N
1578536875.1,286047003.9,N
1578536876.0,286047003.9,N
1578536925.8,286047002.2,E
1578536935.8,286047002.6,N
1578536955.6,286047000.9,P
1578536975.4,286047000.9,N
1578536995.3,286047001.9,N
1578537015.1,286047003.4,Y
1578537035.8,286046999.9,P
1578537055.7,286046998.4,N
1578537075.5,286046998.3,N
1578537095.4,286047001.1,N
1578537115.2,286046999.7,N
1578537135.0,286047000.0,N
1578537135.9,286047000.0,N
1578537155.8,286047002.1,N
1578537175.6,286046999.8,N
1578537195.4,286046998.5,N
1578537215.3,286046998.1,N
1578537235.1,286046999.1,N
1578537255.9,286046997.2,N
1578537275.7,286046995.0,Y
1578537295.5,286046996.9,P
1578537315.4,286046995.3,P
1578537335.2,286046997.2,N
1578537355.1,286046998.7,N
1578537356.0,286046998.7,N
1578537375.8,286046999.1,N
1578537395.6,286046997.6,N
1578537415.5,286046997.4,N
1578537435.3,286046998.0,N
1578537455.1,286046997.8,N
1578537475.9,286046998.0,N
1578537495.7,286046996.1,Y
1578537515.6,286046999.6,P
1578537535.4,286046999.0,N
1578537555.2,286047000.6,N
1578537575.1,286047001.0,N
1578537576.0,286047001.0,N
1578537595.8,286047002.6,N
1578537615.6,286047001.5,N
1578537635.5,286047001.8,N
1578537655.3,286046999.7,N
1578537675.2,286046999.9,N
1578537695.9,286047001.9,N
1578537715.7,286047002.7,N
1578537735.6,286047004.4,Y
1578537755.4,286047000.3,P
1578537775.3,286046998.8,P
1578537795.1,286047001.0,N
1578537796.0,286047001.0,N
1578537815.8,286046998.3,N
1578537835.7,286046999.2,N
1578537855.5,286046998.2,N
1578537875.3,286046996.8,N
1578537895.2,286046997.7,N
1578537915.2,286046999.6,N
1578537935.1,286046998.8,N
1578537936.0,286046998.8,N
1578537955.8,286047000.0,N
1578537975.7,286047002.3,N
1578537995.5,286047000.1,N
1578538015.3,286047000.3,N
1578538035.2,286047000.1,N
1578538055.0,286047000.6,N
1578538055.9,286047000.6,N
1578538075.8,286047000.2,N
1578538095.6,286046999.3,N
1578538115.4,286046999.0,N
1578538135.3,286047002.7,N
1578538155.1,286047002.6,N
1578538175.8,286047001.4,N
1578538195.4,286047002.2,N
1578538215.3,286047000.3,N
1578538235.1,286047001.5,N
1578538255.9,286047001.8,N
1578538275.7,286047003.8,N
1578538295.5,286047003.2,N
1578538315.4,286047005.8,Y
1578538335.2,286047004.2,P
1578538355.1,286047001.3,N
1578538356.0,286047001.3,N
1578538375.8,286047000.2,N
1578538395.6,286046999.2,N
1578538415.5,286046997.2,N
1578538435.3,286046997.0,N
1578538455.2,286046998.3,N
1578538475.9,286047002.8,N
1578538495.7,286047000.0,N
1578538515.6,286046999.1,N
1578538535.4,286046996.8,N
1578538555.2,286046998.9,N
1578538575.1,286046998.1,N
1578538576.0,286046998.1,N
1578538595.8,286046998.3,N
1578538615.7,286046998.7,N
1578538635.5,286046999.3,N
1578538655.3,286047002.4,N
1578538675.2,286047000.5,N
1578538695.0,286047002.7,N
1578538695.9,286047002.7,N
1578538715.8,286047002.4,N
1578538735.6,286047000.0,N
1578538755.4,286047000.8,N
1578538775.3,286047000.8,N
1578538795.1,286046999.9,N
